Pagina principale
METAR-TAF:

METAR-TAF

Aeroporti :

Le Luc, Francia

latitudine: 43-23N, longitudine: 006-23E, altezza: 80 m

Osservazione

Il bollettino è stato emesso 33 minuti fa, alle 14:00 UTC
Vento 4 kt da ovest/sud-ovest, variando fra sud e nord-ovest
Temperature 18°C
Umidità 18%
Pressione 1017 hPa
Visibilità 10 km o più

METAR: LFMC 261400Z AUTO 25004KT 180V320 9999 ////// 18/M07 Q1017

Ora: 15:33 (14:33 UTC)


TAF: mancante

Osservazioni e previsioni meteorologiche di più di 4000 aeroporti (messaggi METAR e TAF).

Le stazioni disponibili sono rappresentate dai dischi gialli e rossi sulla carta.

Puntare il mouse per vedere il nome della stazione.

Clicca sopra per visualizzare le osservazioni e previsioni meteorologiche.

Per cambiare la mappa : fare clic sui pulsanti verdi con una croce nera per ingrandire, il pulsante verde con un trattino per diminuire, o sulla freccia verde per le mappe adiacenti.


METAR-TAF: